Weather History for Michigan City, IN

Change the Weather History Date:

Wednesday, July 25, 2012

  Actual Average (KVPZ) Record (KVPZ)
Temperature  
Mean Temperature 82 °F 72 °F  
Max Temperature 95 °F 82 °F 96 °F (2012)
Min Temperature 68 °F 62 °F 52 °F (2013)
Degree Days  
Heating Degree Days 0 0  
Month to date heating degree days 0  
Since 1 June heating degree days 41  
Since 1 July heating degree days 0  
Cooling Degree Days 16 7  
Month to date cooling degree days 198  
Year to date cooling degree days 409  
Since 1 June cooling degree days 362  
Growing Degree Days 32 (Base 50)    
Moisture  
Dew Point 66 °F    
Average Humidity 64    
Maximum Humidity 94    
Minimum Humidity 44    
Precipitation  
Precipitation 0.00 in 0.12 in 1.07 in (2001)
Month to date precipitation 3.56  
Year to date precipitation 20.45  
Sea Level Pressure  
Sea Level Pressure 29.80 in    
Wind  
Wind Speed 5 mph ()    
Max Wind Speed 14 mph    
Max Gust Speed 22 mph    
Visibility 10.0 miles    
Events Rain    
T = Trace of Precipitation, MM = Missing Value Source: Averaged Metar Reports

Daily Weather History Graph

Daily Weather History Graph

Search for Another Location

Airport:

Trip Planner

Search our weather history database for the weather conditions in past years. The results will help you decide how hot, cold, wet, or windy it might be!

Date:

Astronomy

Jul. 25, 2012 Rise Set
Actual Time 5:35 AM CDT 8:11 PM CDT
Civil Twilight 5:03 AM CDT 8:43 PM CDT
Nautical Twilight 4:23 AM CDT 9:23 PM CDT
Astronomical Twilight 3:37 AM CDT 10:08 PM CDT
Moon 12:47 PM CDT (7/25) 11:29 PM CDT (7/25)
Length of Visible Light 15h 40m
Length of Day
14h 36m
Waxing Crescent, 42% of the Moon is Illuminated
Jul 25
Waxing Crescent
Jul 26
First Quarter
Aug 1
Full
Aug 9
Last Quarter
Aug 17
New

Hourly Weather History & Observations

Time (CDT) Temp. Heat Index Dew Point Humidity Pressure Visibility Wind Dir Wind Speed Gust Speed Precip Events Conditions
12:15 AM 68.0 °F - 64.4 °F 88% 29.97 in 10.0 mi Calm Calm - N/A Rain Light Rain
12:35 AM 68.0 °F - 66.2 °F 94% 29.97 in 10.0 mi Calm Calm - N/A   Scattered Clouds
12:55 AM 68.0 °F - 66.2 °F 94% 29.97 in 10.0 mi Calm Calm - N/A   Mostly Cloudy
1:15 AM 68.0 °F - 66.2 °F 94% 29.97 in 10.0 mi Calm Calm - N/A   Overcast
1:35 AM 68.0 °F - 64.4 °F 88% 29.96 in 10.0 mi Calm Calm - N/A   Mostly Cloudy
1:55 AM 68.0 °F - 64.4 °F 88% 29.95 in 10.0 mi Calm Calm - N/A   Scattered Clouds
2:15 AM 68.0 °F - 64.4 °F 88% 29.94 in 10.0 mi Calm Calm - N/A Rain Light Rain
2:35 AM 68.0 °F - 64.4 °F 88% 29.94 in 10.0 mi Calm Calm - N/A   Scattered Clouds
2:55 AM 68.0 °F - 64.4 °F 88% 29.92 in 10.0 mi ESE 3.5 mph - N/A   Scattered Clouds
3:15 AM 69.8 °F - 62.6 °F 78% 29.92 in 10.0 mi Calm Calm - N/A   Scattered Clouds
3:35 AM 69.8 °F - 62.6 °F 78% 29.92 in 10.0 mi SE 5.8 mph - N/A   Overcast
3:55 AM 69.8 °F - 62.6 °F 78% 29.91 in 10.0 mi SE 4.6 mph - N/A   Mostly Cloudy
4:55 AM 69.8 °F - 64.4 °F 83% 29.91 in 10.0 mi SSE 5.8 mph - N/A   Clear
5:15 AM 69.8 °F - 62.6 °F 78% 29.91 in 10.0 mi SE 4.6 mph - N/A   Clear
5:35 AM 69.8 °F - 62.6 °F 78% 29.91 in 10.0 mi SSE 5.8 mph - N/A   Clear
5:55 AM 69.8 °F - 62.6 °F 78% 29.91 in 10.0 mi SE 5.8 mph - N/A   Clear
6:15 AM 69.8 °F - 62.6 °F 78% 29.92 in 10.0 mi SSE 4.6 mph - N/A   Clear
6:35 AM 69.8 °F - 62.6 °F 78% 29.92 in 10.0 mi SE 5.8 mph - N/A   Clear
6:55 AM 71.6 °F - 60.8 °F 69% 29.91 in 10.0 mi SE 8.1 mph - N/A   Clear
7:15 AM 73.4 °F - 60.8 °F 65% 29.92 in 10.0 mi SSE 6.9 mph - N/A   Scattered Clouds
7:35 AM 71.6 °F - 62.6 °F 73% 29.92 in 10.0 mi SSE 8.1 mph - N/A Rain Light Rain
7:55 AM 69.8 °F - 62.6 °F 78% 29.91 in 10.0 mi ESE 3.5 mph - N/A Rain Light Rain
8:15 AM 69.8 °F - 62.6 °F 78% 29.92 in 10.0 mi SE 6.9 mph - N/A   Mostly Cloudy
8:35 AM 69.8 °F - 62.6 °F 78% 29.91 in 10.0 mi East 3.5 mph - N/A   Scattered Clouds
8:55 AM 69.8 °F - 62.6 °F 78% 29.92 in 10.0 mi East 6.9 mph - N/A   Mostly Cloudy
9:15 AM 71.6 °F - 60.8 °F 69% 29.92 in 10.0 mi East 5.8 mph - N/A   Mostly Cloudy
9:35 AM 71.6 °F - 60.8 °F 69% 29.90 in 10.0 mi SE 5.8 mph - N/A   Scattered Clouds
9:55 AM 71.6 °F - 60.8 °F 69% 29.88 in 10.0 mi SE 6.9 mph - N/A   Clear
10:15 AM 73.4 °F - 60.8 °F 65% 29.87 in 10.0 mi SSE 5.8 mph 17.3 mph N/A   Clear
10:35 AM 77.0 °F - 62.6 °F 61% 29.87 in 10.0 mi SSE 6.9 mph - N/A   Clear
10:55 AM 77.0 °F - 62.6 °F 61% 29.86 in 10.0 mi SSE 8.1 mph - N/A   Clear
11:15 AM 78.8 °F - 64.4 °F 61% 29.86 in 10.0 mi South 9.2 mph - N/A   Clear
11:35 AM 80.6 °F 82.3 °F 64.4 °F 58% 29.85 in 10.0 mi South 10.4 mph 17.3 mph N/A   Clear
11:55 AM 80.6 °F 82.3 °F 64.4 °F 58% 29.83 in 10.0 mi South 11.5 mph 18.4 mph N/A   Clear
12:15 PM 82.4 °F 85.4 °F 68.0 °F 62% 29.82 in 10.0 mi South 8.1 mph - N/A   Clear
12:35 PM 84.2 °F 87.3 °F 68.0 °F 58% 29.81 in 10.0 mi SSE 9.2 mph 16.1 mph N/A   Clear
12:55 PM 84.2 °F 87.3 °F 68.0 °F 58% 29.80 in 10.0 mi South 12.7 mph 18.4 mph N/A   Clear
1:15 PM 86.0 °F 90.4 °F 69.8 °F 58% 29.79 in 10.0 mi South 11.5 mph 17.3 mph N/A   Clear
1:35 PM 87.8 °F 93.8 °F 71.6 °F 58% 29.78 in 10.0 mi South 12.7 mph 17.3 mph N/A   Clear
1:55 PM 87.8 °F 93.8 °F 71.6 °F 58% 29.77 in 10.0 mi South 13.8 mph 19.6 mph N/A   Clear
2:15 PM 87.8 °F 95.6 °F 73.4 °F 62% 29.76 in 10.0 mi South 9.2 mph - N/A   Clear
2:35 PM 89.6 °F 98.2 °F 73.4 °F 59% 29.76 in 10.0 mi South 11.5 mph 21.9 mph N/A   Clear
2:55 PM 91.4 °F 102.5 °F 75.2 °F 59% 29.75 in 10.0 mi South 8.1 mph - N/A   Clear
3:15 PM 91.4 °F 102.5 °F 75.2 °F 59% 29.74 in 10.0 mi South 11.5 mph 16.1 mph N/A   Clear
3:35 PM 91.4 °F 102.5 °F 75.2 °F 59% 29.74 in 10.0 mi South 9.2 mph 16.1 mph N/A   Clear
3:55 PM 91.4 °F 102.5 °F 75.2 °F 59% 29.72 in 10.0 mi South 10.4 mph - N/A   Clear
4:15 PM 91.4 °F 102.5 °F 75.2 °F 59% 29.71 in 10.0 mi South 11.5 mph 17.3 mph N/A   Clear
4:35 PM 93.2 °F 102.4 °F 73.4 °F 52% 29.71 in 10.0 mi South 8.1 mph 17.3 mph N/A   Clear
4:55 PM 93.2 °F 105.0 °F 75.2 °F 56% 29.70 in 10.0 mi South 9.2 mph - N/A   Clear
5:15 PM 93.2 °F 102.4 °F 73.4 °F 52% 29.69 in 10.0 mi South 9.2 mph - N/A   Clear
5:35 PM 95.0 °F 104.5 °F 73.4 °F 49% 29.69 in 10.0 mi SSW 9.2 mph 17.3 mph N/A   Clear
5:55 PM 95.0 °F 101.3 °F 69.8 °F 44% 29.69 in 10.0 mi SSW 9.2 mph 19.6 mph N/A   Clear
6:15 PM 93.2 °F 97.7 °F 68.0 °F 44% 29.68 in 10.0 mi SSW 12.7 mph 16.1 mph N/A   Clear
6:35 PM 91.4 °F 95.4 °F 68.0 °F 46% 29.67 in 10.0 mi SSW 12.7 mph 18.4 mph N/A   Clear
6:55 PM 91.4 °F 95.4 °F 68.0 °F 46% 29.67 in 10.0 mi SSW 9.2 mph - N/A   Clear
7:15 PM 89.6 °F 93.4 °F 68.0 °F 49% 29.67 in 10.0 mi SSW 11.5 mph 17.3 mph N/A   Clear
7:35 PM 89.6 °F 92.2 °F 66.2 °F 46% 29.66 in 10.0 mi SSW 8.1 mph - N/A   Clear
7:55 PM 87.8 °F 90.4 °F 66.2 °F 49% 29.66 in 10.0 mi SSW 9.2 mph - N/A   Clear
8:15 PM 87.8 °F 89.4 °F 64.4 °F 46% 29.66 in 10.0 mi SSW 9.2 mph - N/A   Clear
8:35 PM 87.8 °F 89.4 °F 64.4 °F 46% 29.66 in 10.0 mi SW 8.1 mph - N/A   Clear
8:55 PM 86.0 °F 87.3 °F 64.4 °F 48% 29.64 in 10.0 mi SSW 6.9 mph - N/A   Clear
9:15 PM 86.0 °F 87.3 °F 64.4 °F 48% 29.64 in 10.0 mi SSW 6.9 mph - N/A   Clear
9:35 PM 86.0 °F 87.3 °F 64.4 °F 48% 29.64 in 10.0 mi SSW 8.1 mph - N/A   Clear
9:55 PM 84.2 °F 85.6 °F 64.4 °F 51% 29.64 in 10.0 mi SSW 5.8 mph - N/A   Clear
10:15 PM 86.0 °F 87.3 °F 64.4 °F 48% 29.64 in 10.0 mi SSW 6.9 mph - N/A   Clear
10:35 PM 86.0 °F 87.3 °F 64.4 °F 48% 29.63 in 10.0 mi SSW 5.8 mph - N/A   Clear
10:55 PM 84.2 °F 86.6 °F 66.2 °F 55% 29.62 in 10.0 mi SSW 6.9 mph - N/A   Clear
11:15 PM 84.2 °F 86.6 °F 66.2 °F 55% 29.62 in 10.0 mi SSW 9.2 mph - N/A   Clear
11:35 PM 82.4 °F 83.9 °F 64.4 °F 54% 29.62 in 10.0 mi SSW 8.1 mph - N/A   Clear
11:55 PM 82.4 °F 83.9 °F 64.4 °F 54% 29.62 in 10.0 mi SSW 8.1 mph - N/A   Clear